Location: Gipe Farm
(40.9466°N, 95.5370°W)
Time: 02:26:58
(UTC-06:00)

Daily predictions for brighter satellites

Satellite Brightness Start Highest point End
(mag) Time Altitude Azimuth Time Altitude Azimuth Time Altitude Azimuth
Centaur D-1A AC-31 4.3 03:32:42 14° SE 03:32:42 14° SE 03:34:32 10° ESE
Cosmos 1697 Rocket 3.9 03:58:27 38° NE 03:58:27 38° NE 04:02:07 10° NNE
CENTAUR R/B 4.4 04:13:03 25° S 04:13:03 25° S 04:16:11 10° SSE
Aureole 1 Rocket 4.2 04:08:17 10° NNW 04:15:43 68° ENE 04:21:23 10° SSE
Okean O Rocket 3.3 04:13:34 10° NNE 04:16:24 31° ENE 04:16:24 31° ENE
USA 215 4.1 04:24:55 10° SSE 04:28:44 34° S 04:28:44 34° S
CZ-4B R/B 3.9 04:26:06 10° NNE 04:31:25 51° E 04:34:57 21° SSE
Cosmos 1821 Rocket 3.9 04:32:45 67° S 04:33:40 86° E 04:39:56 10° N
Lacrosse 5 rocket 3.6 04:38:16 17° SE 04:38:16 17° SE 04:39:19 10° SE
ADEOS II 4.1 04:36:20 10° N 04:37:34 16° NNW 04:37:34 16° NNW
Cosmos 1535 Rocket 4.3 04:43:40 38° S 04:46:15 90° W 04:52:24 10° N
Cosmos 2360 4.2 04:47:45 50° S 04:49:17 80° ESE 04:55:02 10° NNE
CZ-4B DEB 4.1 04:44:21 10° NNE 04:49:52 86° ESE 04:51:58 40° S
EXPRESS MD2 4.3 04:51:29 43° N 04:51:56 45° NNE 04:58:05 10° ESE
BREEZE-M DEB (TANK) 3.8 04:54:27 24° ESE 04:54:27 24° ESE 04:55:23 10° ESE
Meteor 2-10 Rocket 3.3 04:53:37 74° NW 04:53:37 74° NW 04:58:21 10° N
IRS-1C Rocket 4.5 04:49:30 10° NNE 04:54:46 63° ESE 04:59:58 10° S
SJ 16-02 1.2 05:00:36 88° WSW 05:00:38 89° W 05:05:05 10° NNE
Cosmos 2322 Rocket 3.8 04:55:49 10° SSE 05:00:50 33° ESE 05:05:52 10° NE
Cosmos 2227 4.3 05:04:57 10° NNW 05:10:35 73° ENE 05:16:11 10° SSE
Cosmos 1980 Rocket 2.1 05:09:17 45° SW 05:10:55 65° WNW 05:16:34 10° NNE
CZ-3 R/B 3.5 05:03:27 28° WSW 05:12:55 44° SSW 05:19:56 10° SE
PAYLOAD B 4.2 05:07:35 10° N 05:13:00 59° WNW 05:15:15 34° SW
COSMO-SKYMED 1 3.6 05:10:29 10° SE 05:14:38 47° ENE 05:18:48 10° N
CZ-2C R/B 4.0 05:10:30 10° SSE 05:15:09 69° ENE 05:19:44 10° N
Okean-O 4.1 05:12:04 10° NNE 05:16:14 38° E 05:20:21 10° SSE
Cosmos 1605 Rocket 3.8 05:13:08 10° S 05:19:16 85° W 05:25:23 10° N
ATLAS 5 CENTAUR R/B 2.1 05:17:16 21° SSW 05:20:08 63° ESE 05:25:00 10° NE
Cosmos 405 3.2 05:19:19 10° N 05:22:54 71° E 05:26:28 10° SSE
SJ-6F 4.5 05:21:23 10° N 05:25:22 52° WNW 05:25:58 47° WSW
NOAA 6 4.4 05:20:47 10° NNE 05:25:56 66° ESE 05:31:02 10° S
PAYLOAD A 4.3 05:23:12 10° NNE 05:27:59 64° ESE 05:32:54 10° S
Cosmos 1441 Rocket 3.4 05:26:37 10° S 05:30:35 77° E 05:34:34 10° NNE
Cosmos 1933 3.4 05:29:47 34° SW 05:31:15 52° W 05:35:14 10° N
Cosmos 158 Rocket 4.3 05:29:25 23° NW 05:32:01 41° WSW 05:36:52 10° S
Meteor 1-31 Rocket 3.7 05:32:47 10° N 05:35:28 29° NW 05:35:28 29° NW
Cosmos 1707 Rocket 4.2 05:36:27 33° W 05:36:38 33° WNW 05:40:43 10° N
Hubble Space Telescope 3.0 05:38:36 12° SSW 05:40:06 14° S 05:42:22 10° SSE
Cosmos 1697 Rocket 3.8 05:40:12 23° WNW 05:40:56 23° NW 05:45:23 10° N
SKYMED 3 4.4 05:40:14 10° S 05:44:35 80° W 05:48:56 10° NNW
Cosmos 1782 4.4 05:41:21 10° SSE 05:45:06 39° E 05:48:52 10° NNE
IDEFIX/ARIANE 42P 2.5 05:41:16 10° N 05:46:31 82° WNW 05:51:42 10° SSW
SL-16 R/B 2.2 05:41:22 10° SSW 05:47:02 84° ESE 05:52:44 10° NNE
Cosmos 1048 Rocket 4.2 05:43:24 10° NNW 05:48:18 45° WSW 05:53:08 10° S
Cosmos 1459 Rocket 4.5 05:44:02 10° S 05:50:13 66° E 05:56:30 10° NNE
Cosmos 2173 Rocket 4.4 05:46:26 10° S 05:52:33 68° E 05:58:38 10° NNE
Okean O Rocket 3.0 05:50:41 10° NNW 05:53:51 19° WNW 05:53:52 19° WNW
COSMOS 2455 3.0 05:48:05 10° NW 05:53:56 53° WSW 05:59:44 10° S
Meteor 1-26 Rocket 4.3 05:56:15 10° SSW 06:02:04 63° WNW 06:07:52 10° N
SKYMED 2 3.7 05:58:25 10° S 06:02:38 49° W 06:06:52 10° NNW
Cosmos 1125 Rocket 4.3 06:01:38 14° WSW 06:05:20 29° WNW 06:09:51 10° N
Feng Yun 1-1 Rocket 4.3 06:00:33 10° N 06:06:03 63° WNW 06:11:40 10° SSW
Cosmos 1606 2.7 06:02:42 10° S 06:06:32 86° E 06:10:20 10° N
Sich 1 Rocket 4.1 06:05:08 10° N 06:09:29 62° E 06:13:49 10° SSE
Cosmos 1437 Rocket 3.4 06:05:51 10° N 06:09:54 62° E 06:13:49 10° SSE
USA 229 DEB 4.3 06:03:21 10° NNW 06:10:30 64° NE 06:17:49 10° SE
USA 229 4.3 06:03:28 10° NNW 06:10:36 63° NE 06:17:55 10° SE
Aureole 3 2.8 06:08:10 10° NNW 06:11:03 50° W 06:14:08 10° S
CZ-4B R/B 4.3 06:07:28 10° NNW 06:11:38 23° WNW 06:15:49 10° WSW
Cosmos 1900 4.4 06:07:41 10° SW 06:12:45 62° WNW 06:17:47 10° NNE
MTI 4.1 06:12:17 10° S 06:15:18 41° W 06:18:20 10° NNW
Cosmos 2242 Rocket 4.4 06:14:18 10° SW 06:18:21 30° WNW 06:22:25 10° NNW
Meteor 1-20 Rocket 4.3 06:14:40 10° NNW 06:20:28 67° W 06:26:09 10° S
COSMOS 2441 4.4 06:16:58 10° N 06:21:51 65° WNW 06:26:41 10° SSW
Cosmos 1703 Rocket 3.6 06:17:39 10° S 06:22:07 88° W 06:26:38 10° N
Cosmos 1633 2.8 06:21:38 10° NNW 06:25:08 45° W 06:28:38 10° SSW
SMAP 4.3 06:20:51 10° NNE 06:25:22 48° E 06:29:51 10° S
Cosmos 405 Rocket 4.0 06:22:55 10° SW 06:26:01 22° WNW 06:29:06 10° NNW
Meteor 1-10 Rocket 4.4 06:21:26 10° S 06:26:59 81° E 06:32:32 10° NNE
Cosmos 2263 Rocket 2.3 06:22:14 10° NNW 06:27:49 61° WSW 06:33:23 10° S
Cosmos 1484 Rocket 3.0 06:25:13 10° NNE 06:29:14 81° ESE 06:33:14 10° S
CZ-2C R/B 2.8 06:24:35 10° N 06:29:27 46° WNW 06:34:22 10° SW
Geosat 4.0 06:27:12 10° SSE 06:32:11 66° WSW 06:37:12 10° NNW
Cosmos 1461 3.1 06:28:48 10° SSW 06:33:06 86° ESE 06:37:40 10° NNE
BREEZE M DEB (TANK) 3.7 06:33:38 10° NNW 06:34:56 14° N 06:36:30 10° NE
Cosmos 1908 Rocket 3.8 06:32:20 10° NNW 06:36:34 48° W 06:40:43 10° SSW
Cosmos 1733 Rocket 4.4 06:37:18 10° NW 06:40:18 18° W 06:43:18 10° SW
Iridium 2 3.7 06:36:56 10° S 06:40:44 72° W 06:44:35 10° N
Meteor 2-6 Rocket 4.1 06:35:57 10° SSW 06:41:28 79° W 06:46:54 10° N
Cosmos 1725 Rocket 4.2 06:36:36 10° S 06:42:53 86° E 06:49:16 10° N
